Terminal Aerodrome Forecast
Issued by NWS Wilmington, OH

Current Version | Previous Version | Text Only | Print | Product List | Glossary Off
Versions: 1 2 3 4 5 6 7 8 9 10 11 12 13 14 15 16 17 18 19 20 21

000
FTUS41 KILN 241900 AAA
TAFILN
TAF AMD
KILN 241925Z 2419/2518 24025G40KT P6SM OVC025
     FM242200 24022G35KT P6SM OVC035
     FM250400 24013G22KT P6SM OVC025
     FM250700 24011KT P6SM OVC025
     FM251000 25011KT P6SM BKN025
     FM251700 25011KT P6SM OVC035=

USA.gov is the U.S. government's official web portal to all federal, state and local government web resources and services.